This demonstration page uses our WeatherBlox Daily Observations layout. Learn more.

Left ArrowRight Arrow

39.92423, -83.80882

Hourly Observations for February 10, 2020

Temp ( °F °C ) Dew Point ( °F °C ) Humidity (%) Winds ( mph kmh ) Pressure ( in mb ) Visibility ( mi km ) Precip ( " mm )
12:56 am 00:56 Mostly Cloudy with Light Rain 43 6.1 38 3.3 82 82 SSW 20 31 29.98 1015 10 16 0.00 0.00
1:30 am 01:30 Cloudy with Light Rain 43 6 39 4 87 87 SSW 15 24 29.99 1016 10 16 0.00 0.00
1:56 am 01:56 Cloudy with Light Rain 44 6.7 41 5 89 89 SSW 18 30 29.98 1015 10 16 0.00 0.00
2:56 am 02:56 Cloudy with Light Rain 45 7.2 43 6.1 93 93 SW 18 30 29.97 1015 10 16 0.00 0.00
3:56 am 03:56 Cloudy 45 7.2 43 6.1 93 93 SW 17 28 29.98 1015 10 16 0.00 0.00
4:42 am 04:42 Cloudy with Light Rain 46 8 45 7 93 93 SW 18 30 29.97 1015 10 16 0.00 0.00
4:56 am 04:56 Cloudy 47 8.3 45 7.2 93 93 SW 20 31 29.97 1015 10 16 0.00 0.00
5:56 am 05:56 Cloudy with Light Rain 46 7.8 46 7.8 100 100 SW 17 28 29.98 1015 5 8 0.00 0.00
6:42 am 06:42 Cloudy with Light Rain 46 8 46 8 100 100 SW 15 24 29.99 1016 3 5 0.00 0.00
6:56 am 06:56 Cloudy with Light Rain 46 7.8 46 7.8 100 100 WSW 15 24 30.00 1016 3 5 0.00 0.00
7:05 am 07:05 Cloudy with Light Rain 46 8 46 8 100 100 SW 15 24 30.00 1016 3 4 0.00 0.00
7:19 am 07:19 Cloudy with Light Rain 46 8 46 8 100 100 WSW 15 24 30.01 1016 3 4 0.00 0.00
7:46 am 07:46 Cloudy with Light Rain 43 6 43 6 100 100 NW 15 24 30.05 1018 3 4 0.00 0.00
7:56 am 07:56 Cloudy with Rain 41 5 41 5 100 100 NW 10 17 30.05 1018 3 5 0.00 0.00
8:42 am 08:42 Cloudy with Light Rain 37 3 37 3 100 100 NNW 7 11 30.08 1019 8 13 0.00 0.00
8:56 am 08:56 Cloudy with Light Rain 38 3.3 38 3.3 100 100 NNW 7 11 30.08 1019 4 6 0.00 0.00
9:16 am 09:16 Cloudy with Light Rain 37 3 37 3 100 100 NNW 7 11 30.09 1019 3 5 0.00 0.00
9:25 am 09:25 Cloudy with Light Rain 37 3 37 3 100 100 NNW 7 11 30.10 1019 3 4 0.00 0.00
9:56 am 09:56 Cloudy with Light Rain 38 3.3 38 3.3 100 100 NNW 8 13 30.10 1019 2 3 0.00 0.00
10:05 am 10:05 Cloudy with Light Rain 37 3 37 3 100 100 NNW 8 13 30.11 1020 3 4 0.00 0.00
10:13 am 10:13 Cloudy with Light Rain 37 3 37 3 100 100 NNW 8 13 30.11 1020 3 5 0.00 0.00
10:23 am 10:23 Cloudy with Light Rain 37 3 37 3 100 100 NNW 10 17 30.11 1020 2 3 0.00 0.00
10:56 am 10:56 Cloudy with Light Rain 38 3.3 38 3.3 100 100 N 6 9 30.11 1020 3 5 0.00 0.00
11:04 am 11:04 Cloudy with Light Rain 39 4 39 4 100 100 N 7 11 30.12 1020 3 4 0.00 0.00
11:14 am 11:14 Cloudy with Light Rain 37 3 37 3 100 100 N 7 11 30.12 1020 4 6 0.00 0.00
11:56 am 11:56 Cloudy 39 3.9 39 3.9 100 100 NNE 6 9 30.09 1019 7 11 0.00 0.00
12:56 pm 12:56 Cloudy 39 3.9 39 3.9 100 100 N 6 9 30.08 1019 8 13 N/A
1:56 pm 13:56 Cloudy with Mist and Fog 38 3.3 38 3.3 100 100 N 8 13 30.07 1018 4 6 N/A
2:13 pm 14:13 Cloudy with Mist and Fog 37 3 37 3 100 100 N 8 13 30.08 1019 3 4 N/A
2:20 pm 14:20 Cloudy with Mist and Fog 37 3 37 3 100 100 N 6 9 30.08 1019 3 5 N/A
2:56 pm 14:56 Cloudy 38 3.3 38 3.3 100 100 N 7 11 30.06 1018 10 16 N/A
3:56 pm 15:56 Cloudy 37 2.8 37 2.8 100 100 N 8 13 30.07 1018 8 13 N/A
4:51 pm 16:51 Cloudy with Light Rain 37 3 37 3 100 100 N 6 9 30.09 1019 4 6 0.00 0.00
4:56 pm 16:56 Cloudy with Light Rain 37 2.8 37 2.8 100 100 N 6 9 30.07 1018 3 5 0.00 0.00
5:03 pm 17:03 Cloudy with Light Rain 37 3 37 3 100 100 N 7 11 30.09 1019 2 3 0.00 0.00
5:53 pm 17:53 Cloudy with Mist and Fog 37 3 37 3 100 100 NNE 7 11 30.09 1019 4 6 0.00 0.00
5:56 pm 17:56 Cloudy with Mist and Fog 37 2.8 37 2.8 100 100 NNE 8 13 30.08 1019 4 6 0.00 0.00
6:14 pm 18:14 Cloudy with Mist and Fog 37 3 37 3 100 100 NNE 6 9 30.10 1019 3 5 N/A
6:56 pm 18:56 Cloudy with Mist and Fog 36 2.2 36 2.2 100 100 NNE 3 6 30.09 1019 3 4 N/A
7:46 pm 19:46 Cloudy with Mist and Fog 36 2 36 2 100 100 NNE 6 9 30.13 1020 3 5 N/A
7:56 pm 19:56 Cloudy with Mist and Fog 36 2.2 36 2.2 100 100 N 6 9 30.11 1020 2 3 N/A
8:56 pm 20:56 Cloudy with Mist and Fog 36 2.2 36 2.2 100 100 N 6 9 30.10 1019 3 4 0.00 0.00
9:56 pm 21:56 Cloudy with Mist and Fog 35 1.7 35 1.7 100 100 N 8 13 30.10 1019 3 4 N/A
10:34 pm 22:34 Cloudy with Mist and Fog 36 2 36 2 100 100 NNW 7 11 30.12 1020 3 5 N/A
10:41 pm 22:41 Cloudy with Mist and Fog 36 2 36 2 100 100 NNW 7 11 30.13 1020 3 4 N/A
10:48 pm 22:48 Cloudy with Mist and Fog 36 2 36 2 100 100 N 7 11 30.13 1020 3 5 N/A
10:56 pm 22:56 Cloudy with Mist and Fog 35 1.7 35 1.7 100 100 NNW 5 7 30.11 1020 4 6 N/A
11:37 pm 23:37 Cloudy with Mist and Fog 36 2 36 2 100 100 NNW 7 11 30.12 1020 2 3 N/A
11:56 pm 23:56 Cloudy with Mist and Fog 35 1.7 35 1.7 100 100 NNW 8 13 30.09 1019 2 3 N/A

Powered by AerisWeather